Le nostre stazioni meteo in Italia

Pubblicità
Il mio iltempo24.it
Capo Frasca, Italia (16539): Temperatura & dewpoint: 07.11.2019 00:00:00 - 13.11.2019 00:00:00 (CET)Capo Frasca, Italia (16539): velocità del vento: 07.11.2019 00:00:00 - 13.11.2019 00:00:00 (CET)Capo Frasca, Italia (16539): direzione del vento: 07.11.2019 00:00:00 - 13.11.2019 00:00:00 (CET)Capo Frasca, Italia (16539): reduced air pressure: 07.11.2019 00:00:00 - 13.11.2019 00:00:00 (CET)Capo Frasca, Italia (16539): visibility: 07.11.2019 00:00:00 - 13.11.2019 00:00:00 (CET)
Data & Tempo tt [°C] td [°C] ff [km/h] ff [kn] dd ppp [hPa] vv [km]
13.11.2019 00:00:00 - - - - - - -
12.11.2019 23:00:00 - - - - - - -
12.11.2019 22:00:00 - - - - - - -
12.11.2019 21:00:00 - - - - - - -
12.11.2019 20:00:00 - - - - - - -
12.11.2019 19:00:00 14,6 12,5 46 25 NO 995,7 15
12.11.2019 18:00:00 - - - - - - -
12.11.2019 17:00:00 - - - - - - -
12.11.2019 16:00:00 14,0 11,5 42 23 NO 995,2 15
12.11.2019 15:00:00 - - - - - - -
12.11.2019 14:00:00 - - - - - - -
12.11.2019 13:00:00 14,0 12,2 46 25 NO 996,2 12
12.11.2019 12:00:00 - - - - - - -
12.11.2019 11:00:00 - - - - - - -
12.11.2019 10:00:00 12,8 11,7 28 15 NNO 997,4 8
12.11.2019 09:00:00 - - - - - - -
12.11.2019 08:00:00 - - - - - - -
12.11.2019 07:00:00 13,0 11,1 0 0 N 998,2 20
12.11.2019 06:00:00 - - - - - - -
12.11.2019 05:00:00 - - - - - - -
12.11.2019 04:00:00 - - - - - - -
12.11.2019 03:00:00 - - - - - - -
12.11.2019 02:00:00 - - - - - - -
12.11.2019 01:00:00 - - - - - - -
12.11.2019 00:00:00 - - - - - - -
11.11.2019 23:00:00 - - - - - - -
11.11.2019 22:00:00 - - - - - - -
11.11.2019 21:00:00 - - - - - - -
11.11.2019 20:00:00 - - - - - - -
11.11.2019 19:00:00 13,4 12,5 0 0 N 1004,8 20
11.11.2019 18:00:00 - - - - - - -
11.11.2019 17:00:00 - - - - - - -
11.11.2019 16:00:00 15,2 13,0 11 6 ESE 1004,4 25
11.11.2019 15:00:00 - - - - - - -
11.11.2019 14:00:00 - - - - - - -
11.11.2019 13:00:00 16,2 13,9 15 8 ESE 1005,1 20
11.11.2019 12:00:00 - - - - - - -
11.11.2019 11:00:00 - - - - - - -
11.11.2019 10:00:00 11,8 10,2 22 12 ESE 1006,2 20
11.11.2019 09:00:00 - - - - - - -
11.11.2019 08:00:00 - - - - - - -
11.11.2019 07:00:00 11,2 9,6 22 12 ESE 1004,7 20
11.11.2019 06:00:00 - - - - - - -
11.11.2019 05:00:00 - - - - - - -
11.11.2019 04:00:00 - - - - - - -
11.11.2019 03:00:00 - - - - - - -
11.11.2019 02:00:00 - - - - - - -
11.11.2019 01:00:00 - - - - - - -
11.11.2019 00:00:00 - - - - - - -
10.11.2019 23:00:00 - - - - - - -
10.11.2019 22:00:00 - - - - - - -
10.11.2019 21:00:00 - - - - - - -
10.11.2019 20:00:00 - - - - - - -
10.11.2019 19:00:00 11,8 10,4 22 12 ESE 1002,3 10
10.11.2019 18:00:00 - - - - - - -
10.11.2019 17:00:00 - - - - - - -
10.11.2019 16:00:00 11,0 9,7 15 8 ESE 1003,4 10
10.11.2019 15:00:00 - - - - - - -
10.11.2019 14:00:00 - - - - - - -
10.11.2019 13:00:00 10,0 8,9 24 13 ESE 1005,4 3,0
10.11.2019 12:00:00 - - - - - - -
10.11.2019 11:00:00 - - - - - - -
10.11.2019 10:00:00 9,0 7,9 18 10 ESE 1008,3 10
10.11.2019 09:00:00 - - - - - - -
10.11.2019 08:00:00 - - - - - - -
10.11.2019 07:00:00 9,6 8,5 21 11 ESE 1008,7 20
10.11.2019 06:00:00 - - - - - - -
10.11.2019 05:00:00 - - - - - - -
10.11.2019 04:00:00 - - - - - - -
10.11.2019 03:00:00 - - - - - - -
10.11.2019 02:00:00 - - - - - - -
10.11.2019 01:00:00 - - - - - - -
10.11.2019 00:00:00 - - - - - - -
09.11.2019 23:00:00 - - - - - - -
09.11.2019 22:00:00 - - - - - - -
09.11.2019 21:00:00 - - - - - - -
09.11.2019 20:00:00 - - - - - - -
09.11.2019 19:00:00 - - - - - - -
09.11.2019 18:00:00 - - - - - - -
09.11.2019 17:00:00 - - - - - - -
09.11.2019 16:00:00 12,6 10,3 22 12 NO 1010,2 10
09.11.2019 15:00:00 - - - - - - -
09.11.2019 14:00:00 - - - - - - -
09.11.2019 13:00:00 10,8 9,2 9 5 O 1010,5 10
09.11.2019 12:00:00 - - - - - - -
09.11.2019 11:00:00 - - - - - - -
09.11.2019 10:00:00 10,2 9,0 28 15 O 1010,8 10
09.11.2019 09:00:00 - - - - - - -
09.11.2019 08:00:00 - - - - - - -
09.11.2019 07:00:00 11,4 10,0 18 10 ONO 1009,4 15
09.11.2019 06:00:00 - - - - - - -
09.11.2019 05:00:00 - - - - - - -
09.11.2019 04:00:00 - - - - - - -
09.11.2019 03:00:00 - - - - - - -
09.11.2019 02:00:00 - - - - - - -
09.11.2019 01:00:00 - - - - - - -
09.11.2019 00:00:00 - - - - - - -
08.11.2019 23:00:00 - - - - - - -
08.11.2019 22:00:00 - - - - - - -
08.11.2019 21:00:00 - - - - - - -
08.11.2019 20:00:00 - - - - - - -
08.11.2019 19:00:00 14,0 8,2 16 9 O 1008,5 20
08.11.2019 18:00:00 - - - - - - -
08.11.2019 17:00:00 - - - - - - -
08.11.2019 16:00:00 13,4 10,6 11 6 O 1006,3 20
08.11.2019 15:00:00 - - - - - - -
08.11.2019 14:00:00 - - - - - - -
08.11.2019 13:00:00 14,0 12,9 48 26 O 1006,2 4,0
08.11.2019 12:00:00 - - - - - - -
08.11.2019 11:00:00 - - - - - - -
08.11.2019 10:00:00 15,4 13,9 24 13 SSO 1006,2 25
08.11.2019 09:00:00 - - - - - - -
08.11.2019 08:00:00 - - - - - - -
08.11.2019 07:00:00 13,0 11,7 0 0 N 1005,6 15
08.11.2019 06:00:00 - - - - - - -
08.11.2019 05:00:00 - - - - - - -
08.11.2019 04:00:00 - - - - - - -
08.11.2019 03:00:00 - - - - - - -
08.11.2019 02:00:00 - - - - - - -
08.11.2019 01:00:00 - - - - - - -
08.11.2019 00:00:00 - - - - - - -
07.11.2019 23:00:00 - - - - - - -
07.11.2019 22:00:00 - - - - - - -
07.11.2019 21:00:00 - - - - - - -
07.11.2019 20:00:00 - - - - - - -
07.11.2019 19:00:00 17,8 15,6 5 3 SO 1009,0 20
07.11.2019 18:00:00 - - - - - - -
07.11.2019 17:00:00 - - - - - - -
07.11.2019 16:00:00 19,0 16,8 15 8 SSO 1009,3 25
07.11.2019 15:00:00 - - - - - - -
07.11.2019 14:00:00 - - - - - - -
07.11.2019 13:00:00 18,6 17,4 13 7 SSO 1010,4 25
07.11.2019 12:00:00 - - - - - - -
07.11.2019 11:00:00 - - - - - - -
07.11.2019 10:00:00 18,0 13,3 0 0 N 1010,6 20
07.11.2019 09:00:00 - - - - - - -
07.11.2019 08:00:00 - - - - - - -
07.11.2019 07:00:00 16,0 13,8 2 1 ONO 1010,0 20
07.11.2019 06:00:00 - - - - - - -
07.11.2019 05:00:00 - - - - - - -
07.11.2019 04:00:00 - - - - - - -
07.11.2019 03:00:00 - - - - - - -
07.11.2019 02:00:00 - - - - - - -
07.11.2019 01:00:00 - - - - - - -
07.11.2019 00:00:00 - - - - - - -

tt = Temperatura
td = dewpoint
ff = velocità del vento
dd = direzione del vento
ppp = reduced air pressure
vv = visibility

Stazioni seguenti

WeatherPro
AMSI
MeteoEarth